EJU394K LFMN-LFST

Flight info

Callsign EJU394K
Flight time 0h 52m
Altitude 34000
Route IRMAR DCT KINES DCT VANAS DCT MOBLO DCT UBIMA DCT GILIR/N0381F280 DCT PENDU DCT LUL
Aircraft A320/M-SDE2E3FGHIJ1RWXYZ/LB1

Departure

Time 2026-05-04 04:47
Airport Nice-Côte d'Azur Airport (LFMN)

Arrival

Time 2026-05-04 05:39
Airport Strasbourg Airport (LFST)
Time Latitude Longitude Altitude Speed Heading
2026-05-04 04:26 43.66227 7.20666 21 ft 0 kts 261°
2026-05-04 04:35 43.66229 7.20684 24 ft 4 kts 261°
2026-05-04 04:35 43.66233 7.20716 23 ft 2 kts 261°
2026-05-04 04:35 43.66240 7.20748 22 ft 4 kts 224°
2026-05-04 04:36 43.66261 7.20760 21 ft 3 kts 171°
2026-05-04 04:36 43.66276 7.20756 22 ft 0 kts 171°
2026-05-04 04:38 43.66271 7.20758 23 ft 2 kts 171°
2026-05-04 04:38 43.66244 7.20763 21 ft 5 kts 171°
2026-05-04 04:38 43.66197 7.20773 21 ft 8 kts 170°
2026-05-04 04:38 43.66130 7.20789 21 ft 11 kts 171°
2026-05-04 04:39 43.66050 7.20807 23 ft 11 kts 171°
2026-05-04 04:39 43.65974 7.20824 22 ft 11 kts 171°
2026-05-04 04:39 43.65903 7.20840 21 ft 10 kts 171°
2026-05-04 04:39 43.65836 7.20855 21 ft 9 kts 171°
2026-05-04 04:40 43.65773 7.20868 21 ft 9 kts 175°
2026-05-04 04:40 43.65718 7.20823 21 ft 10 kts 224°
2026-05-04 04:40 43.65666 7.20750 21 ft 12 kts 225°
2026-05-04 04:40 43.65604 7.20665 21 ft 13 kts 225°
2026-05-04 04:41 43.65534 7.20570 21 ft 15 kts 225°
2026-05-04 04:41 43.65457 7.20464 21 ft 16 kts 224°
2026-05-04 04:41 43.65377 7.20354 21 ft 15 kts 225°
2026-05-04 04:41 43.65303 7.20291 21 ft 12 kts 181°
2026-05-04 04:42 43.65233 7.20353 21 ft 13 kts 135°
2026-05-04 04:42 43.65173 7.20435 21 ft 11 kts 135°
2026-05-04 04:42 43.65112 7.20501 21 ft 11 kts 156°
2026-05-04 04:42 43.65033 7.20503 24 ft 12 kts 198°
2026-05-04 04:43 43.64973 7.20437 22 ft 10 kts 225°
2026-05-04 04:43 43.64925 7.20372 22 ft 9 kts 225°
2026-05-04 04:43 43.64874 7.20302 22 ft 12 kts 225°
2026-05-04 04:43 43.64816 7.20222 21 ft 11 kts 225°
2026-05-04 04:44 43.64754 7.20180 22 ft 9 kts 176°
2026-05-04 04:44 43.64710 7.20223 23 ft 7 kts 133°
2026-05-04 04:44 43.64692 7.20268 23 ft 4 kts 86°
2026-05-04 04:44 43.64711 7.20300 25 ft 4 kts 45°
2026-05-04 04:45 43.64714 7.20304 24 ft 0 kts 45°
2026-05-04 04:45 43.64722 7.20316 23 ft 10 kts 45°
2026-05-04 04:45 43.64953 7.20631 23 ft 85 kts 44°
2026-05-04 04:47 43.65503 7.27453 3268 ft 157 kts 139°
2026-05-04 04:47 43.64660 7.28415 3916 ft 157 kts 140°
2026-05-04 04:47 43.63786 7.29372 4417 ft 169 kts 151°
2026-05-04 04:47 43.62578 7.29547 4743 ft 191 kts 197°
2026-05-04 04:48 43.61498 7.28362 5024 ft 218 kts 238°
2026-05-04 04:49 43.64373 7.22409 7524 ft 252 kts 333°
2026-05-04 04:49 43.66027 7.21306 7947 ft 276 kts 333°
2026-05-04 04:49 43.67801 7.20128 8581 ft 288 kts 333°
2026-05-04 04:49 43.69622 7.18917 9428 ft 293 kts 333°
2026-05-04 04:50 43.71477 7.17688 10277 ft 298 kts 332°
2026-05-04 04:50 43.73353 7.16443 11122 ft 301 kts 332°
2026-05-04 04:50 43.75206 7.15213 12295 ft 286 kts 332°
2026-05-04 04:50 43.76959 7.14058 13528 ft 276 kts 331°
2026-05-04 04:51 43.78692 7.12917 14379 ft 276 kts 332°
2026-05-04 04:51 43.80440 7.11759 14969 ft 286 kts 331°
2026-05-04 04:51 43.82304 7.10510 15193 ft 309 kts 331°
2026-05-04 04:51 43.84312 7.09159 15372 ft 332 kts 331°
2026-05-04 04:52 43.86463 7.07716 15512 ft 355 kts 332°
2026-05-04 04:52 43.88753 7.06190 15634 ft 376 kts 332°
2026-05-04 04:52 43.91172 7.04576 15763 ft 395 kts 332°
2026-05-04 04:52 43.93689 7.02895 16123 ft 406 kts 332°
2026-05-04 04:53 43.96253 7.01190 16661 ft 411 kts 332°
2026-05-04 04:53 43.98845 6.99464 17217 ft 415 kts 332°
2026-05-04 04:53 44.01461 6.97714 17775 ft 419 kts 332°
2026-05-04 04:53 44.04098 6.95945 18333 ft 423 kts 332°
2026-05-04 04:54 44.06763 6.94155 18817 ft 427 kts 332°
2026-05-04 04:54 44.09404 6.92376 19280 ft 430 kts 332°
2026-05-04 04:54 44.12105 6.90557 19768 ft 433 kts 333°
2026-05-04 04:54 44.14955 6.89135 20250 ft 438 kts 344°
2026-05-04 04:55 44.17980 6.88466 20736 ft 443 kts 352°
2026-05-04 04:55 44.21048 6.88021 21200 ft 445 kts 352°
2026-05-04 04:55 44.24139 6.87570 21668 ft 447 kts 352°
2026-05-04 04:55 44.27236 6.87107 22109 ft 449 kts 352°
2026-05-04 04:56 44.30353 6.86632 22546 ft 452 kts 352°
2026-05-04 04:56 44.33486 6.86152 22998 ft 454 kts 352°
2026-05-04 04:56 44.36633 6.85674 23443 ft 456 kts 352°
2026-05-04 04:56 44.39800 6.85198 23861 ft 459 kts 352°
2026-05-04 04:57 44.42870 6.84734 24206 ft 461 kts 352°
2026-05-04 04:57 44.46066 6.84248 24541 ft 463 kts 352°
2026-05-04 04:57 44.49279 6.83755 24862 ft 466 kts 352°
2026-05-04 04:57 44.52515 6.83254 25175 ft 469 kts 352°
2026-05-04 04:58 44.55770 6.82755 25490 ft 472 kts 352°
2026-05-04 04:58 44.59037 6.82259 25802 ft 474 kts 352°
2026-05-04 04:58 44.62330 6.81758 26103 ft 477 kts 352°
2026-05-04 04:58 44.65636 6.81254 26403 ft 479 kts 352°
2026-05-04 04:59 44.68958 6.80745 26699 ft 482 kts 352°
2026-05-04 04:59 44.72301 6.80234 27001 ft 484 kts 352°
2026-05-04 04:59 44.75657 6.79719 27271 ft 486 kts 352°
2026-05-04 04:59 44.79029 6.79198 27548 ft 489 kts 352°
2026-05-04 05:00 44.82424 6.78738 27844 ft 490 kts 353°
2026-05-04 05:00 44.85827 6.78431 28247 ft 490 kts 355°
2026-05-04 05:00 44.92631 6.78096 29061 ft 489 kts 356°
2026-05-04 05:01 44.96033 6.77956 29463 ft 488 kts 356°
2026-05-04 05:01 44.99423 6.77789 29883 ft 488 kts 355°
2026-05-04 05:01 45.02810 6.77590 30270 ft 486 kts 355°
2026-05-04 05:01 45.06185 6.77367 30585 ft 486 kts 355°
2026-05-04 05:02 45.09555 6.77126 30928 ft 485 kts 354°
2026-05-04 05:02 45.12924 6.76881 31255 ft 484 kts 354°
2026-05-04 05:02 45.16282 6.76646 31593 ft 483 kts 354°
2026-05-04 05:02 45.19686 6.76416 31934 ft 483 kts 354°
2026-05-04 05:03 45.23035 6.76193 32269 ft 482 kts 354°
2026-05-04 05:03 45.26381 6.75971 32614 ft 481 kts 354°
2026-05-04 05:04 45.36330 6.75321 33668 ft 476 kts 354°
2026-05-04 05:04 45.39641 6.75111 33977 ft 476 kts 354°
2026-05-04 05:04 45.42944 6.74891 34061 ft 471 kts 354°
2026-05-04 05:06 45.65411 6.73328 34053 ft 460 kts 354°
2026-05-04 05:06 45.68621 6.73115 34047 ft 462 kts 354°
2026-05-04 05:07 45.75061 6.72678 34056 ft 464 kts 354°
2026-05-04 05:07 45.81519 6.72234 34050 ft 464 kts 354°
2026-05-04 05:09 46.08347 6.70411 34033 ft 463 kts 354°
2026-05-04 05:10 46.14622 6.70282 34039 ft 466 kts
2026-05-04 05:10 46.20815 6.70836 34032 ft 466 kts
2026-05-04 05:11 46.27293 6.71409 34030 ft 466 kts
2026-05-04 05:11 46.33772 6.71987 34030 ft 467 kts
2026-05-04 05:12 46.40256 6.72561 34034 ft 467 kts
2026-05-04 05:12 46.46737 6.73135 34039 ft 467 kts
2026-05-04 05:13 46.53223 6.73718 34043 ft 467 kts
2026-05-04 05:13 46.59710 6.74304 34046 ft 467 kts
2026-05-04 05:14 46.66200 6.74894 34044 ft 467 kts
2026-05-04 05:14 46.72692 6.75474 34048 ft 468 kts
2026-05-04 05:15 46.79200 6.76064 34057 ft 469 kts
2026-05-04 05:15 46.85715 6.76652 34059 ft 469 kts
2026-05-04 05:16 46.92233 6.77246 34058 ft 469 kts
2026-05-04 05:16 46.98755 6.77839 34060 ft 469 kts
2026-05-04 05:17 47.05272 6.78430 34058 ft 470 kts
2026-05-04 05:17 47.11798 6.79020 34059 ft 470 kts
2026-05-04 05:18 47.18319 6.79611 34062 ft 469 kts
2026-05-04 05:18 47.24833 6.80213 34052 ft 469 kts
2026-05-04 05:19 47.31346 6.80818 34048 ft 469 kts
2026-05-04 05:19 47.37857 6.81420 34053 ft 469 kts
2026-05-04 05:20 47.44362 6.82019 34041 ft 468 kts
2026-05-04 05:20 47.50869 6.82614 34038 ft 468 kts
2026-05-04 05:21 47.57375 6.83217 34037 ft 469 kts
2026-05-04 05:21 47.63884 6.83834 34040 ft 469 kts
2026-05-04 05:22 47.70400 6.84449 34038 ft 469 kts
2026-05-04 05:22 47.73655 6.84755 33935 ft 468 kts
2026-05-04 05:22 47.76906 6.85060 33155 ft 468 kts
2026-05-04 05:23 47.80163 6.85362 32284 ft 470 kts
2026-05-04 05:23 47.83432 6.85666 31417 ft 472 kts
2026-05-04 05:23 47.86719 6.85974 30594 ft 473 kts
2026-05-04 05:23 47.89991 6.86283 29980 ft 469 kts
2026-05-04 05:24 47.93199 6.87036 29276 ft 466 kts 14°
2026-05-04 05:24 47.96251 6.88523 28167 ft 458 kts 17°
2026-05-04 05:24 47.99245 6.90058 27084 ft 452 kts 18°
2026-05-04 05:24 48.02190 6.91598 26049 ft 445 kts 18°
2026-05-04 05:25 48.05091 6.93129 25049 ft 439 kts 18°
2026-05-04 05:25 48.07950 6.94638 24065 ft 432 kts 18°
2026-05-04 05:25 48.10780 6.96055 23028 ft 426 kts 12°
2026-05-04 05:25 48.13643 6.96681 21995 ft 418 kts
2026-05-04 05:26 48.16560 6.97075 20966 ft 413 kts
2026-05-04 05:26 48.19366 6.97434 20015 ft 408 kts
2026-05-04 05:26 48.22179 6.97787 19102 ft 403 kts
2026-05-04 05:26 48.24960 6.98132 18208 ft 399 kts
2026-05-04 05:27 48.27700 6.98470 17401 ft 390 kts
2026-05-04 05:28 48.34851 7.17082 12801 ft 319 kts 103°
2026-05-04 05:29 48.34476 7.20335 12171 ft 314 kts 103°
2026-05-04 05:29 48.34114 7.23548 11527 ft 309 kts 103°
2026-05-04 05:29 48.33753 7.26711 11006 ft 302 kts 105°
2026-05-04 05:29 48.33019 7.29493 10761 ft 276 kts 130°
2026-05-04 05:31 48.28678 7.22160 8184 ft 228 kts 283°
2026-05-04 05:31 48.29335 7.19997 7748 ft 231 kts 304°
2026-05-04 05:32 48.30579 7.18470 7373 ft 235 kts 334°
2026-05-04 05:32 48.32193 7.18053 7126 ft 240 kts
2026-05-04 05:32 48.33749 7.18909 6889 ft 241 kts 37°
2026-05-04 05:33 48.35116 7.23157 6399 ft 232 kts 98°
2026-05-04 05:33 48.34747 7.25483 6144 ft 229 kts 108°
2026-05-04 05:33 48.34592 7.27873 5887 ft 233 kts 87°
2026-05-04 05:33 48.34987 7.30233 5636 ft 235 kts 66°
2026-05-04 05:34 48.35900 7.32292 5509 ft 235 kts 48°
2026-05-04 05:34 48.36965 7.34085 5505 ft 229 kts 49°
2026-05-04 05:34 48.37994 7.35835 5501 ft 219 kts 49°
2026-05-04 05:34 48.38998 7.37540 5299 ft 217 kts 49°
2026-05-04 05:35 48.39995 7.39232 5013 ft 215 kts 49°
2026-05-04 05:35 48.40978 7.40902 4670 ft 212 kts 49°
2026-05-04 05:35 48.41952 7.42556 4332 ft 210 kts 49°
2026-05-04 05:35 48.42913 7.44190 4010 ft 208 kts 49°
2026-05-04 05:36 48.43559 7.45289 3793 ft 206 kts 49°
2026-05-04 05:36 48.44478 7.46851 3487 ft 199 kts 49°
2026-05-04 05:36 48.45379 7.48386 3185 ft 193 kts 48°
2026-05-04 05:36 48.46267 7.49897 2891 ft 188 kts 49°
2026-05-04 05:37 48.47112 7.51336 2598 ft 184 kts 49°
2026-05-04 05:37 48.47948 7.52764 2316 ft 179 kts 49°
2026-05-04 05:37 48.48763 7.54153 2043 ft 175 kts 49°
2026-05-04 05:38 48.50349 7.56862 1508 ft 168 kts 49°
2026-05-04 05:38 48.51091 7.58131 1264 ft 155 kts 49°
2026-05-04 05:38 48.51779 7.59306 1015 ft 144 kts 48°
2026-05-04 05:38 48.52425 7.60410 795 ft 138 kts 48°
2026-05-04 05:39 48.53051 7.61483 584 ft 135 kts 48°
2026-05-04 05:39 48.54086 7.63260 506 ft 71 kts 49°
2026-05-04 05:39 48.54304 7.63633 504 ft 33 kts 49°
2026-05-04 05:40 48.54525 7.63994 505 ft 10 kts 24°
2026-05-04 05:40 48.54579 7.63978 506 ft 9 kts 322°
2026-05-04 05:40 48.54634 7.63901 506 ft 12 kts 306°
2026-05-04 05:41 48.54624 7.63789 506 ft 13 kts 232°
2026-05-04 05:41 48.54555 7.63669 506 ft 17 kts 228°
2026-05-04 05:41 48.54466 7.63517 506 ft 21 kts 229°
2026-05-04 05:41 48.54367 7.63346 506 ft 22 kts 228°
2026-05-04 05:42 48.54307 7.63221 506 ft 11 kts 258°
2026-05-04 05:42 48.54339 7.63127 506 ft 10 kts 319°
2026-05-04 05:42 48.54384 7.63064 506 ft 8 kts 311°
2026-05-04 05:42 48.54385 7.62994 506 ft 7 kts 245°
2026-05-04 05:43 48.54359 7.62944 506 ft 6 kts 232°
2026-05-04 05:43 48.54366 7.62906 506 ft 3 kts 323°
2026-05-04 05:43 48.54388 7.62894 506 ft 4 kts 346°
2026-05-04 05:45 48.54420 7.62885 506 ft 0 kts 349°